sat.trackr.live / text

‹ back to catalog

STARLINK-11198 [DTC]

NORAD 60114 · 2024-118B

PAYLOAD ACTIVE UNKNOWN

§ Identity

Operator
Country
US
Launch date
2024-06-24
Launch site
AFWTR
Launch vehicle
Mass (kg)
RCS (m²)

Purposes: comms

External: N2YO · Heavens-Above · Gunter

§ Orbital elements

Epoch: 2026-09-21T11:56:11.834016Z

Period
91.74 min
Inclination
53.1594°
Eccentricity
0.0001243
Mean motion
15.69707268 rev/d
Perigee alt
358.9 km
Apogee alt
360.6 km
Semi-major
6,737.9 km
B*
3.5816e-6
RAAN
336.2581°
Arg perigee
53.2797°
Mean anomaly
306.8335°
Rev number
12,874

§ Raw data

STARLINK-11198 [DTC]1 60114U 24118B   26264.49735919 -.00000155  00000+0  35816-5 0  99942 60114  53.1594 336.2581 0001243  53.2797 306.8335 15.69707268128743

JSON: /api/v1/satellites/60114 · /tle

For live sub-satellite position, see the globe view (requires WebGL).

§ Visibility from observer

Set your observer location to see the next 7 days of passes ≥ 10°. The values pass through the URL so the page stays shareable.

No JS? Fill the form by hand. The geolocation button needs JavaScript.